Printer-friendly version
Follow the MPC on Twitter Follow the MPC on Facebook Follow the MPC on Google+ The MPC blog See all the MPC RSS feeds

MPEC 2010-W03 : 2010 WA

The following Minor Planet Electronic Circular may be linked-to from your own Web pages, but must not otherwise be redistributed electronically.

A form allowing access to any MPEC is at the bottom of this page.


Read MPEC 2010-W02 Read MPEC 2010-W04


M.P.E.C. 2010-W03                                Issued 2010 Nov. 16, 12:32 UT

     The Minor Planet Electronic Circulars contain information on unusual
         minor planets and routine data on comets.  They are published
   on behalf of Commission 20 of the International Astronomical Union by the
          Minor Planet Center, Smithsonian Astrophysical Observatory,
                          Cambridge, MA 02138, U.S.A.

             Prepared using the Tamkin Foundation Computer Network

                              MPC@CFA.HARVARD.EDU
       URL http://www.minorplanetcenter.org/iau/mpc.html  ISSN 1523-6714

                                    2010 WA

Observations:
     K10W00A* C2010 11 16.14303 01 29 01.03 +31 07 29.1          20.3 V EW003G96
     K10W00A  C2010 11 16.15142 01 28 59.91 +31 08 37.7          20.3 V EW003G96
     K10W00A  C2010 11 16.15990 01 28 58.76 +31 09 47.4          21.2 V EW003G96
     K10W00A  C2010 11 16.16826 01 28 57.54 +31 10 54.1          20.4 V EW003G96
     K10W00A  C2010 11 16.19909 01 28 52.17 +31 15 02.8          19.5 V EW003G96
     K10W00A  C2010 11 16.20709 01 28 50.61 +31 16 06.1          20.7 V EW003G96
     K10W00A  C2010 11 16.21520 01 28 49.05 +31 17 09.4          20.3 V EW003G96
     K10W00A  C2010 11 16.22325 01 28 47.44 +31 18 12.7          20.3 V EW003G96
     K10W00A  C2010 11 16.32574 01 28 29.53 +31 30 58.3          20.1 V EW003G96
     K10W00A  C2010 11 16.32619 01 28 29.46 +31 31 02.0          20.5 V EW003G96
     K10W00A  C2010 11 16.32667 01 28 29.38 +31 31 04.9          20.1 V EW003G96
     K10W00A  C2010 11 16.32715 01 28 29.35 +31 31 08.6          20.4 V EW003G96
     K10W00A  C2010 11 16.36787 01 28 27.40 +31 36 00.5          19.9 V EW003G96
     K10W00A  C2010 11 16.36830 01 28 27.37 +31 36 03.7          19.8 V EW003G96
     K10W00A  C2010 11 16.36876 01 28 27.44 +31 36 07.0          20.0 V EW003G96
     K10W00A  C2010 11 16.37885 01 28 27.76 +31 37 19.3          19.8 V EW003G96
     K10W00A  C2010 11 16.37931 01 28 27.74 +31 37 22.7          19.9 V EW003G96
     K10W00A  C2010 11 16.37979 01 28 27.78 +31 37 25.8          19.9 V EW003G96
     K10W00A  C2010 11 16.38028 01 28 27.80 +31 37 29.5          20.1 V EW003G96
     K10W00A  C2010 11 16.42245 01 28 33.92 +31 42 38.6          19.9 V EW003G96
     K10W00A  C2010 11 16.42290 01 28 33.99 +31 42 42.3          19.9 V EW003G96
     K10W00A  C2010 11 16.42336 01 28 34.17 +31 42 45.5          19.8 V EW003G96
     K10W00A  C2010 11 16.42383 01 28 34.24 +31 42 49.3          19.6 V EW003G96

Observer details:
G96 Mt. Lemmon Survey.  Observer R. A. Kowalski.  Measurers J. D. Ahern,
    E. C. Beshore, A. Boattini, G. J. Garradd, A. R. Gibbs, A. D. Grauer,
    R. E. Hill, R. A. Kowalski, S. M. Larson, R. H. McNaught.  1.5-m reflector
    + CCD.

Orbital elements:
2010 WA                                                  Earth MOID = 0.0002 AU
Epoch 2010 July 23.0 TT = JDT 2455400.5                 MPC
M 306.86613              (2000.0)            P               Q
n   0.34893517     Peri.  229.00317     -0.23183325     -0.96835027
a   1.9982028      Node   234.63580     +0.92306823     -0.18900183
e   0.5669366      Incl.    6.51104     +0.30691754     -0.16302165
P   2.82           H   30.0           G   0.15           U   8
Residuals in seconds of arc
101116 G96  0.6+  0.0-    101116 G96  0.3+  0.2-    101116 G96  0.2-  0.1+
101116 G96  0.4-  0.1-    101116 G96  0.0-  0.2+    101116 G96  0.1-  0.3-
101116 G96  0.1-  0.5+    101116 G96  0.4-  0.3-    101116 G96  0.2-  0.1-
101116 G96  0.4+  0.7-    101116 G96  0.2-  0.1-    101116 G96  0.1+  0.1-
101116 G96  0.0+  0.4+    101116 G96  0.3+  0.0+    101116 G96  0.4-  0.2+
101116 G96  0.4-  0.3+    101116 G96  0.2-  0.1+    101116 G96  0.4+  0.1-
101116 G96  0.1-  0.3-    101116 G96  0.6+  0.1+    101116 G96  0.1-  0.2+
101116 G96  0.1-  0.1+    101116 G96  0.3+  0.0-

Ephemeris:
2010 WA                  a,e,i = 2.00, 0.57, 7                   q = 0.8653
Date    TT    R. A. (2000) Decl.     Delta      r     Elong.  Phase     V
2010 11 16.0  01 27.80   +30 54.7    0.00824  0.996   151.0    28.7    20.8
2010 11 16.1  01 28.21   +31 04.1    0.00754  0.996   151.0    28.8    20.6
2010 11 16.2  01 28.72   +31 15.5    0.00683  0.995   151.0    28.8    20.4
2010 11 16.3  01 29.34   +31 29.5    0.00612  0.994   150.9    28.9    20.2
2010 11 16.4  01 30.14   +31 47.2    0.00541  0.994   150.9    28.9    19.9
2010 11 16.5  01 31.18   +32 10.2    0.00470  0.993   150.9    28.9    19.6
2010 11 16.6  01 32.61   +32 41.3    0.00399  0.992   151.0    28.9    19.3
2010 11 16.7  01 34.69   +33 25.7    0.00328  0.992   151.0    28.9    18.8
2010 11 16.8  01 38.00   +34 34.4    0.00257  0.991   151.1    28.8    18.3
2010 11 16.9  01 44.04   +36 34.6    0.00186  0.990   151.2    28.8    17.6
2010 11 17.0  01 58.67   +40 56.9    0.00116  0.990   150.8    29.2    16.6
2010 11 17.1  03 21.70   +56 18.4    0.00048  0.989   142.6    37.4    14.9
2010 11 17.2  12 20.89   +00 48.4    0.00041  0.988    50.2   129.8    18.7
2010 11 17.3  13 07.67   -22 39.3    0.00107  0.988    33.2   146.7    23.0
2010 11 17.4  13 19.94   -27 51.2    0.00178  0.987    31.0   149.0    24.5
2010 11 17.5  13 25.60   -30 04.6    0.00248  0.987    30.3   149.6    25.3
2010 11 17.6  13 28.86   -31 18.4    0.00319  0.986    30.0   149.9    25.9
2010 11 17.7  13 30.98   -32 05.2    0.00390  0.985    29.9   150.0    26.4
2010 11 17.8  13 32.47   -32 37.5    0.00461  0.985    29.8   150.0    26.7
2010 11 17.9  13 33.58   -33 01.2    0.00532  0.984    29.8   150.0    27.0
2010 11 18.0  13 34.43   -33 19.2    0.00603  0.983    29.8   150.0    27.3

     Minimum distance to the earth is 0.00026 AU on 2010 Nov. 17.16.

Gareth V. Williams           (C) Copyright 2010 MPC           M.P.E.C. 2010-W03

Read MPEC 2010-W02 Read MPEC 2010-W04


MPEC number:

Enter an MPEC number in one of the following forms:

  • 1997-B01 (the full form)
  • J97B01 (the packed version of the full form)
  • B01 (the abbreviated form)

Valid HTML 4.01!